STARLINK-31703

decayed
NORAD ID: 59861 Int'l Des: 2024-098 Owner: SPXS Country: US Constellation: starlink
LEOCIRCULAR
グループ

STARLINK-31703について

説明を読み込み中...

高度履歴

Altitude vs Time

uPlot chart will show altitude changes over time

軌道要素

1 59861U 24098D 24310.90664736 .04070701 89581-5 14135-2 0 9994
2 59861 42.9757 154.0773 0017787 278.3643 176.5488 16.23859392 26482
Epoch: Nov 5, 2024 • Age: 7525 hours

現在のステータス

Position data unavailable
打ち上げ日 May 24, 2024
運用期間 1.3 years
落下予定日 Nov 6, 2024
タイプ internet

技術仕様

分類 Payload
質量 730.00 kg
乾燥質量 700.00 kg
総質量 730.00 kg
長さ 0.30 m
直径 4.10 m
スパン 29.00 m
形状 Box + pan
製造者 SPXS
バスタイプ Starlink V2M
フェーズステータス Unknown Transfer Status
所有者/国 SPXS/US

大規模コンステレーション

Loading constellations...